This demonstration page uses our WeatherBlox Daily Observations layout. Learn more.

Left ArrowRight Arrow

36.17497, -115.13722

Hourly Observations for March 22, 2021

Temp ( °F °C ) Dew Point ( °F °C ) Humidity (%) Winds ( mph kmh ) Pressure ( in mb ) Visibility ( mi km ) Precip ( " mm )
1:53 am 01:53 Clear 53 11.7 15 -9.4 22 22 N 7 11 30.07 1018 10 16 0.00 0.00
2:53 am 02:53 Clear 51 10.6 15 -9.4 24 24 NW 8 13 30.07 1018 10 16 0.00 0.00
3:53 am 03:53 Clear 51 10.6 14 -10 23 23 NNW 12 19 30.06 1018 10 16 0.00 0.00
4:53 am 04:53 Clear 50 10 14 -10 24 24 NNW 10 17 30.07 1018 10 16 0.00 0.00
5:53 am 05:53 Clear 49 9.4 14 -10 25 25 NNW 9 15 30.07 1018 10 16 0.00 0.00
6:53 am 06:53 Sunny 48 8.9 14 -10 25 25 NNW 10 17 30.08 1019 10 16 0.00 0.00
7:53 am 07:53 Sunny 50 10 16 -8.9 26 26 NNW 10 17 30.09 1019 10 16 0.00 0.00
8:53 am 08:53 Sunny 55 12.8 16 -8.9 21 21 NNW 9 15 30.08 1019 10 16 0.00 0.00
9:53 am 09:53 Sunny 58 14.4 15 -9.4 18 18 NNW 10 17 30.07 1018 10 16 0.00 0.00
10:53 am 10:53 Sunny 59 15 14 -10 17 17 Calm 30.06 1018 10 16 0.00 0.00
11:53 am 11:53 Sunny 60 15.6 14 -10 16 16 VRB 6 9 30.04 1017 10 16 0.00 0.00
12:53 pm 12:53 Sunny 63 17.2 15 -9.4 15 15 ESE 8 13 30.00 1016 10 16 0.00 0.00
1:53 pm 13:53 Sunny 64 17.8 15 -9.4 15 15 Calm 29.96 1015 10 16 0.00 0.00
2:53 pm 14:53 Sunny 65 18.3 15 -9.4 14 14 SSE 6 9 29.93 1013 10 16 0.00 0.00
3:53 pm 15:53 Sunny 67 19.4 14 -10 13 13 Calm 29.88 1012 10 16 0.00 0.00
4:53 pm 16:53 Sunny 67 19.4 13 -10.6 12 12 SE 5 7 29.84 1011 10 16 0.00 0.00
5:53 pm 17:53 Sunny 67 19.4 14 -10 13 13 WSW 5 7 29.83 1010 10 16 0.00 0.00
6:53 pm 18:53 Mostly Sunny 67 19.4 14 -10 13 13 SSW 10 17 29.82 1010 10 16 0.00 0.00
7:53 pm 19:53 undefined 65 18.3 14 -10 14 14 SW 7 11 29.81 1009 10 16 0.00 0.00
8:53 pm 20:53 Clear 64 17.8 15 -9.4 15 15 WSW 6 9 29.79 1009 10 16 0.00 0.00
9:53 pm 21:53 Clear 60 15.6 15 -9.4 17 17 N 5 7 29.79 1009 10 16 0.00 0.00
10:53 pm 22:53 Clear 59 15 18 -7.8 20 20 NNW 8 13 29.78 1008 10 16 0.00 0.00
11:53 pm 23:53 Mostly Clear 61 16.1 28 -2.2 29 29 NW 15 24 29.76 1008 10 16 0.00 0.00

Powered by AerisWeather